Theta_e
284 284 284 285 287 289 289 288 289 290 291 292 293 294 296 298 300 302 305 306 310 310 313 320 320 319 319 318 319 318 315 317
283 283 283 284 285 288 288 288 288 289 290 291 291 293 294 295 297 299 301 302 305 307 307 308 308 310 311 310 310 306 304 304
283 282 281 282 283 285 287 288 288 289 290 289 290 291 292 292 294 296 297 298 300 301 301 302 303 303 303 301 302 300 298 298
281 281 280 281 282 283 283 284 288 288 288 288 288 289 290 291 292 293 294 295 296 297 297 298 299 298 297 297 296 294 294 294
280 280 279 280 281 282 283 284 286 286 287 287 287 288 288 289 290 291 292 292 293 294 294 295 296 295 295 294 293 292 291 291
277 280 279 276 279 282 282 283 284 287 284 286 286 287 287 287 288 289 289 290 291 292 292 293 294 294 293 291 290 289 288 289
277 281 277 274 277 282 279 282 283 283 285 286 286 286 286 286 287 287 287 287 288 289 289 290 291 292 292 290 288 287 286 285
283 279 278 278 282 280 281 282 282 282 282 285 285 285 285 285 285 285 285 286 286 287 288 287 289 290 289 287 286 284 284 283
283 282 280 280 277 282 282 281 282 282 283 285 284 283 283 284 283 283 284 284 284 284 285 286 287 288 287 286 284 284 283 282
284 282 280 280 280 281 281 280 280 280 283 282 281 280 280 280 280 280 281 282 282 283 282 284 285 287 286 284 283 281 281 282
283 282 280 280 280 281 280 280 279 280 281 281 281 280 279 280 280 280 281 281 281 281 281 281 283 287 286 284 283 281 281 282
281 280 280 279 280 280 279 278 279 278 279 279 280 280 280 280 279 279 279 279 278 278 278 279 281 284 287 285 282 281 280 280
280 280 279 279 280 279 278 278 276 276 275 275 275 280 279 276 276 276 276 275 274 274 275 277 278 284 286 286 284 283 279 279
280 278 274 275 276 276 275 274 273 272 271 272 273 276 277 276 274 274 273 273 273 274 273 274 276 278 285 285 284 283 279 278
276 276 276 274 275 276 272 273 272 271 271 271 272 272 273 277 277 275 273 272 274 273 272 270 272 273 275 277 279 281 279 281
280 280 279 275 275 273 272 272 272 271 272 273 274 274 274 275 275 276 275 276 271 270 272 268 267 272 277 275 272 271 275 268
280 280 281 275 276 273 272 273 273 273 273 274 274 272 273 273 270 281 281 283 284 283 276 273 278 281 282 281 281 281 280 263
282 282 283 278 277 275 274 274 274 276 275 273 273 273 273 268 272 275 279 282 283 284 284 282 281 283 282 282 283 283 278 260
284 283 283 280 279 277 274 274 275 275 272 275 275 274 271 271 272 266 269 272 273 278 280 283 282 283 283 282 280 274 269 258
283 284 283 281 282 276 276 275 276 276 276 276 274 274 274 273 270 269 266 265 261 260 274 276 283 282 282 283 269 267 263 261
Wind_Speed
5 5 4 5 6 5 6 7 8 7 7 6 6 6 6 6 6 6 5 7 5 5 7 4 2 2 4 3 5 6 1 3
3 4 5 5 6 5 5 6 7 6 6 6 6 6 6 5 6 6 6 6 5 5 6 6 6 5 5 5 6 7 7 7
1 3 5 5 5 5 6 5 5 6 7 6 6 7 7 6 7 6 6 5 5 5 5 8 5 8 6 8 8 7 8 7
2 3 3 5 5 6 5 6 5 5 6 6 7 7 7 7 7 7 6 6 6 6 7 6 7 8 7 9 9 9 8 6
3 3 3 3 4 5 5 5 5 6 6 7 7 7 7 7 8 8 8 8 7 7 7 6 8 7 8 9 9 9 9 8
4 4 4 4 4 4 4 5 5 4 5 6 6 6 7 7 7 8 9 8 8 8 8 9 7 5 7 9 9 9 9 9
5 6 6 5 4 4 3 2 3 5 5 5 5 5 6 6 7 8 9 8 9 10 9 9 6 12 12 9 9 8 9 9
7 7 5 5 4 4 3 1 2 2 3 3 3 4 5 4 6 7 7 7 8 9 8 8 8 15 15 14 8 8 8 7
6 6 5 4 4 2 1 1 2 2 3 3 4 4 4 4 6 6 5 7 6 7 7 7 8 15 16 16 9 8 9 8
6 5 5 6 5 4 2 1 1 2 3 4 4 4 4 5 4 3 5 6 6 5 6 6 7 13 13 11 8 8 8 6
8 5 6 6 6 5 4 2 1 1 3 3 3 4 3 4 3 2 5 5 4 6 5 6 6 10 10 8 5 8 5 5
7 8 7 6 6 6 5 6 4 3 1 2 3 2 1 2 1 3 5 5 5 5 4 4 3 6 9 9 4 5 5 4
7 7 7 7 6 6 7 5 5 5 3 2 3 2 2 3 2 4 4 5 4 4 4 3 4 5 8 9 8 8 6 4
7 6 5 6 6 6 6 6 5 5 5 4 3 4 4 4 3 3 3 3 2 2 2 1 2 3 8 10 12 12 5 3
7 8 9 8 8 7 5 7 7 6 5 4 5 4 3 2 3 3 3 3 3 3 3 2 0 1 1 1 4 9 4 8
11 11 13 8 11 8 7 8 6 6 5 5 4 6 5 4 4 4 3 4 4 4 4 4 2 4 6 6 3 3 6 6
11 11 12 10 11 9 9 11 9 7 6 6 6 4 3 4 1 5 6 9 8 8 7 4 5 7 8 8 8 11 14 4
15 15 11 12 12 10 12 12 12 11 8 5 5 5 5 3 5 6 4 6 6 8 11 10 7 9 7 6 8 11 9 1
10 11 11 10 14 11 13 13 12 11 8 8 8 7 6 6 5 3 4 5 3 6 7 10 11 11 11 9 6 3 1 3
8 10 9 10 15 9 12 14 14 11 9 9 7 7 8 7 6 6 5 5 4 1 5 6 14 12 13 15 5 5 5 4
Wind_Direction
339 356 7 342 326 347 346 340 335 337 329 330 335 325 316 310 328 324 326 320 303 255 257 244 224 225 210 213 213 214 208 218
327 340 346 354 339 327 341 339 338 330 335 339 342 338 335 336 335 335 332 336 348 20 53 58 59 36 66 61 73 85 65 45
316 340 340 340 334 330 329 340 341 337 343 353 359 360 360 358 355 353 6 8 14 36 57 78 62 68 65 80 71 78 80 76
288 302 324 322 324 327 333 330 343 359 2 8 9 12 13 11 9 19 29 31 30 47 56 62 75 79 77 85 84 83 73 72
263 256 278 294 304 317 326 337 343 5 18 18 13 17 22 20 21 27 33 40 37 40 54 55 68 82 91 88 86 88 80 75
221 247 261 283 305 308 325 344 352 25 24 24 13 24 35 33 30 35 39 40 37 48 45 49 55 64 82 84 84 90 86 70
227 233 233 224 250 283 284 322 31 24 31 25 20 20 30 35 38 47 43 43 45 47 50 56 60 62 75 89 92 86 86 85
231 225 218 201 204 236 260 283 97 71 32 45 39 42 39 36 56 52 54 55 49 54 61 65 70 80 81 79 79 86 92 92
210 217 213 187 187 206 187 128 102 70 46 35 60 53 35 40 62 56 54 59 62 50 37 70 75 87 86 83 80 78 74 67
188 180 188 189 179 176 150 113 105 80 45 39 65 79 70 65 61 62 62 62 60 49 47 60 76 88 94 92 88 80 68 70
170 159 179 200 166 164 182 174 176 100 72 53 77 96 106 106 101 77 77 77 75 71 47 33 76 104 110 102 105 97 89 66
166 177 195 178 166 185 176 206 179 150 119 88 87 105 140 120 81 98 89 87 65 72 42 50 67 115 134 140 120 128 124 99
172 198 190 183 173 191 206 191 164 148 141 129 127 127 108 91 48 70 85 86 65 58 42 14 15 94 134 134 127 126 109 118
201 197 208 194 186 194 216 162 165 157 177 182 166 141 150 132 121 96 86 91 100 99 97 29 354 14 114 128 128 123 109 143
173 214 218 199 203 210 174 165 162 181 191 187 171 163 161 155 161 145 158 150 162 167 174 191 89 34 349 35 125 130 119 119
197 209 226 195 206 193 182 162 185 189 183 198 197 185 174 186 178 178 202 174 177 198 174 160 213 227 197 179 167 153 142 97
208 209 220 195 213 194 178 180 179 193 201 194 186 192 187 171 210 224 201 203 217 207 182 213 223 200 194 197 183 171 153 68
213 218 216 198 210 192 186 181 192 204 190 179 187 188 186 184 176 180 219 212 221 220 207 198 192 199 197 210 206 198 177 123
218 213 212 208 218 197 177 187 199 204 193 189 190 188 178 184 197 153 182 195 221 258 218 205 196 198 200 199 177 201 150 189
203 223 205 207 233 173 183 193 198 199 203 197 194 195 193 184 180 186 183 198 207 252 248 212 210 208 213 210 180 198 216 210